Location: Tierz
(42.1336°N, 0.3549°W)
Time: 15:45:36
(UTC+00:00)

Cosmos 1689 Rocket - Pass Details

Date: 29 October 2020
Orbit: 360 x 375 km, 97.5° (Epoch: 23 November)

Event Time Altitude Azimuth Distance (km) Brightness Sun altitude
Exits shadow 18:19:24 - 8° (N) 2,071 5.6 -15.5°
Reaches altitude 10° 18:21:02 10° 5° (N) 1,353 4.7 -15.8°
Maximum altitude 18:23:53 61° 285° (WNW) 415 2.4 -16.3°
Drops below altitude 10° 18:26:42 10° 203° (SSW) 1,341 5.1 -16.8°
Sets 18:28:37 0° 200° (SSW) 2,182 6.2 -17.2°
